Content
SEND FEEDBACK

Daily
Averages
Monthly
Summary
United States of America

SAPINERO, COLORADO


Home > North America > United States > Colorado
Elevation: 7810 feet     Latitude: 38 28N     Longitude: 107 10W

WEATHER
 
SELECT A DAY
Number of Records: 447,200;   Date Range: 1/1/95 - 7/20/14
 
SHARE

PRINT THIS DATA

[ ← Previous Day ]
WEATHER ALMANAC - JANUARY 3, 2013
[ Next Day → ]
[ °C ]   °F
Weather ElementAverageHighLow
Temperature-12.5 °F3.2 °F (2:55 pm)-27.4 °F (7:35 am)
Dewpoint-13.3 °F (1:15 am)-29.2 °F (8:35 am)
Humidity54 %76 % (2:35 am)34 % (11:55 am)
Barometer30.35 in30.42 in (9:15 am)30.30 in (2:55 pm)
Wind Speed0.9 mph4.6 mph (7:55 am)
Weather ElementAverage
Visibility9.8 mi
Wind DirectionNNE (36 °)

Weather ElementTotal
Precipitation---
Heating Degree Days77.1 (Base 65)
Averaged from 55 records on January 3, 2013
WEATHER CONDITIONS BREAKOUT
WIND DIRECTION BREAKOUT
WEATHER BY HOUR - JANUARY 3, 2013
[ °C ]   °F
Local TimeTemperatureDewpointHumidityBarometerVisibilityWind DirectionWind SpeedGust SpeedPrecipitationEventsConditions
1:15 AM-18.4 °F0.0 °F30.31 in10.0 miCalmClear
2:15 AM-18.4 °F0.0 °F30.32 in10.0 miCalmClear
2:35 AM-18.4 °F-23.8 °F76 %30.33 in10.0 miCalmClear
3:15 AM-22.0 °F0.0 °F30.34 in10.0 miCalmClear
3:35 AM-20.2 °F-25.6 °F76 %30.34 in10.0 miCalmClear
3:55 AM-18.4 °F-27.4 °F63 %30.34 in10.0 miCalmClear
4:15 AM-18.4 °F0.0 °F30.34 in10.0 miCalmClear
4:35 AM-22.0 °F0.0 °F30.34 in10.0 miCalmClear
4:55 AM-23.8 °F0.0 °F30.34 in10.0 miCalmClear
5:35 AM-23.8 °F0.0 °F30.35 in9.0 miCalmClear
5:55 AM-25.6 °F0.0 °F30.36 in10.0 miCalmClear
6:15 AM-23.8 °F0.0 °F30.36 in10.0 miCalmClear
6:35 AM-23.8 °F0.0 °F30.37 in10.0 miNE (50°)3.5 mphClear
6:55 AM-23.8 °F0.0 °F30.37 in10.0 miCalmClear
7:15 AM-23.8 °F0.0 °F30.38 in10.0 miENE (70°)3.5 mphClear
7:35 AM-27.4 °F0.0 °F30.38 in10.0 miENE (70°)3.5 mphClear
7:55 AM-25.6 °F0.0 °F30.39 in8.0 miENE (60°)4.6 mphClear
8:15 AM-25.6 °F0.0 °F30.40 in10.0 miENE (60°)3.5 mphClear
8:35 AM-23.8 °F-29.2 °F76 %30.40 in10.0 miCalmClear
9:15 AM-23.8 °F0.0 °F30.42 in10.0 miCalmClear
9:35 AM-22.0 °F-27.4 °F76 %30.42 in3.0 miCalmClear
10:15 AM-16.6 °F0.0 °F30.42 in10.0 miCalmClear
10:35 AM-13.0 °F-22.0 °F64 %30.42 in10.0 miCalmClear
10:55 AM-13.0 °F0.0 °F30.41 in10.0 miCalmClear
11:55 AM-7.6 °F-29.2 °F34 %30.38 in10.0 miCalmClear
12:35 PM-4.0 °F-23.8 °F38 %30.35 in10.0 miCalmClear
12:55 PM-2.2 °F-23.8 °F35 %30.34 in10.0 miSE (130°)3.5 mphClear
1:15 PM-2.2 °F-20.2 °F42 %30.33 in10.0 miCalmClear
1:55 PM-0.4 °F-16.6 °F46 %30.31 in10.0 miCalmClear
2:15 PM1.4 °F-13.0 °F51 %30.31 in10.0 miCalmClear
2:35 PM1.4 °F0.0 °F30.31 in10.0 miCalmClear
2:55 PM3.2 °F-11.2 °F51 %30.30 in10.0 miCalmClear
3:15 PM3.2 °F-11.2 °F51 %30.30 in10.0 miCalmClear
3:35 PM3.2 °F-9.4 °F56 %30.30 in10.0 miCalmClear
4:15 PM3.2 °F-9.4 °F56 %30.30 in10.0 miCalmClear
4:55 PM3.2 °F-11.2 °F51 %30.30 in10.0 miCalmClear
5:15 PM1.4 °F-16.6 °F43 %30.30 in10.0 miCalmClear
5:35 PM-0.4 °F-14.8 °F51 %30.31 in10.0 miNNW (340°)3.5 mphClear
5:55 PM-2.2 °F-16.6 °F50 %30.32 in10.0 miNNW (340°)3.5 mphClear
6:15 PM-2.2 °F-18.4 °F46 %30.32 in10.0 miNorth (350°)4.6 mphClear
6:35 PM-4.0 °F-18.4 °F50 %30.33 in10.0 miCalmClear
6:55 PM-5.8 °F-18.4 °F55 %30.33 in10.0 miCalmClear
7:15 PM-5.8 °F-20.2 °F50 %30.34 in10.0 miCalmClear
7:35 PM-7.6 °F-18.4 °F59 %30.34 in10.0 miCalmClear
7:55 PM-9.4 °F-25.6 °F45 %30.34 in10.0 miNE (50°)3.5 mphClear
8:35 PM-9.4 °F-23.8 °F49 %30.34 in10.0 miNorth (360°)3.5 mphClear
8:55 PM-9.4 °F-20.2 °F59 %30.35 in10.0 miCalmClear
9:15 PM-11.2 °F-22.0 °F59 %30.35 in9.0 miENE (60°)3.5 mphClear
9:35 PM-13.0 °F-27.4 °F49 %30.35 in10.0 miCalmClear
9:55 PM-14.8 °F-27.4 °F53 %30.35 in10.0 miNE (40°)3.5 mphClear
10:15 PM-14.8 °F-23.8 °F64 %30.36 in10.0 miCalmClear
10:35 PM-14.8 °F-29.2 °F48 %30.36 in10.0 miCalmClear
10:55 PM-16.6 °F-25.6 °F64 %30.36 in10.0 miCalmClear
11:15 PM-18.4 °F0.0 °F30.35 in10.0 miCalmClear
11:35 PM-16.6 °F-29.2 °F53 %30.35 in10.0 miCalmClear
Hourly data recorded from KGUC, located miles away from Sapinero, Colorado







STORIES FROM OUR PARTNERS